{"data":{"norad_id":60595,"intl_designator":"2024-150N","name":"STARLINK-32202","alt_names":[],"object_type":"PAYLOAD","status":"ACTIVE","operator":null,"country":"US","launch_date":"2024-08-20","launch_site_code":"AFETR","launch_vehicle":null,"mission":null,"orbit_class":"UNKNOWN","rcs_meters":null,"size_class":null,"mass_kg":null,"dimensions":null,"purposes":["comms"],"wikipedia_slug":null,"has_3d_model":false,"image_url":null,"decayed_at":null,"tle_current":{"epoch":"2026-09-21T21:13:21.587232Z","epoch_age_seconds":68914,"freshness":"FRESH","line1":"1 60595U 24150N   26264.88427763 -.00002440  00000+0 -66923-4 0  9993","line2":"2 60595  53.1593 114.7287 0001201  84.8210 275.2928 15.31690521118097","mean_motion":15.31690521,"eccentricity":0.0001201,"inclination_deg":53.1593,"raan_deg":114.7287,"arg_perigee_deg":84.821,"mean_anomaly_deg":275.2928,"bstar":-6.6923e-5,"rev_number":11809,"period_min":94.013769769879,"perigee_km":469.94569825638,"apogee_km":471.59080529786,"semimajor_km":6848.9052517771,"source":"CELESTRAK","updated_at":"2026-09-22T09:00:49.273801Z"}}}